Regional Weather Roundup
Issued by NWS New Orleans/Baton Rouge, LA

Home | Current Version | Previous Version | Text Only | Print | Product List | Glossary On
Versions: 1 2 3 4 5 6 7 8 9 10 11 12 13 14 15 16 17 18 19 20 21 22 23 24 25 26 27 28 29 30 31 32 33 34 35 36 37 38 39 40 41 42 43 44 45 46 47 48 49 50
396
ASUS44 KLIX 311711
RWRLIX
NEW ORLEANS REGIONAL WEATHER ROUNDUP
NATIONAL WEATHER SERVICE NEW ORLEANS LA
1200 PM CDT TUE MAY 31 2016

NOTE: "FAIR" INDICATES FEW OR NO CLOUDS BELOW 12,000 FEET WITH NO
      SIGNIFICANT WEATHER AND/OR OBSTRUCTIONS TO VISIBILITY.
      SKY/WX - SKY CONDITION AND SIGNIFICANT WEATHER.
      TMP - AIR TEMPERATURE.     DP    - DEWPOINT TEMPERATURE.
      RH  - RELATIVE HUMIDITY.   PRES  - PRESSURE.
      HI  - HEAT INDEX.          WCI   - WIND CHILL INDEX.

*  THESE STATIONS ARE NOT NWS OR FAA STATIONS AND ARE NOT UNDER
   NWS QUALITY CONTROL.

LAZ038-040-048-061>063-065>067-069-311800-
SOUTHEAST LOUISIANA

CITY           SKY/WX    TMP DP  RH WIND       PRES   REMARKS
N.O. AUDUBON   NOT AVBL
N.O. INTL ARPT MOSUNNY   87  72  60 E5        29.96S
N.O. LAKEFRONT SUNNY     85  71  63 N6        29.97S
N.O. DOWNTOWN* CLOUDY    83  71  67 VRB3      29.97S
RESERVE*       PTSUNNY   86  69  56 CALM      29.96S
SLIDELL        MOSUNNY   85  71  63 SW5       29.95S
BATON ROUGE    MOSUNNY   87  67  51 CALM      29.96S
BOOTHVILLE     MOSUNNY   83  73  72 VRB5      29.98S
BELLE CHASSE   PTSUNNY   87  69  54 SE3       29.96S
BOGALUSA*        N/A     86  67  52 CALM      29.98R
GALLIANO*      CLOUDY    85  70  60 SE6       29.96F
NEW ROADS*       N/A     84  68  58 CALM      29.96F
GONZALES*        N/A     85  69  58 CALM      29.95S
HAMMOND*       SUNNY     88  64  45 E3        29.96S
HOUMA*         MOSUNNY   86  70  58 MISG      29.96S
PORT FOURCHON* SUNNY     82  66  57 CALM      29.97S

$$

MSZ070-080>082-311800-
SOUTHERN MISSISSIPPI

CITY           SKY/WX    TMP DP  RH WIND       PRES   REMARKS
MCCOMB         SUNNY     84  67  56 VRB3      29.96F
GULFPORT       MOSUNNY   87  73  62 S8        29.95S
BILOXI         SUNNY     87  73  63 S8        29.95S
PASCAGOULA     MOSUNNY   90  71  53 W6        29.95S HX  96
STENNIS ARPT*  MOSUNNY   86  64  48 VRB5      29.96R

$$

COASTAL OBSERVATIONS
LAKE AND NEARSHORE STATIONS

STATION/POSITION TIME  TEMP    WIND        PRES    WAVE
                       AIR SEA DIR/SP/G            HT/PER
                 (UTC) (F)     (DEG/KT/KT) (MB)    (FT/S)
PASCAGOULA       1600   85     220/  5/  7 1013.9
WAVELAND YACHT   1600   82 83  140/  3/  4 1014.3
GRAND ISLE       1600   82 83  150/  4/  7 1014.7
SOUTHWEST PASS   1600          190/  2/  3   N/A
NEW CANAL        1600   80 81   20/  5/  6 1014.0
SHELL BEACH      1600   79 83  340/  3/  3 1014.8

OFFSHORE STATIONS

STATION/POSITION TIME  TEMP    WIND        PRES    WAVE
                       AIR SEA DIR/SP/G            HT/PER
                 (UTC) (F)     (DEG/KT/KT) (MB)    (FT/S)
64 S DAUPHIN ISL 1600   81 81  280/  2/  4 1015.0

$$





USA.gov is the U.S. government's official web portal to all federal, state and local government web resources and services.